Volver al catálogo

FENGYUN 1C DEB

ActivoPO
NORAD 38725·DEBRIS·🇨🇳 China

Lanzado May 10, 1999 desde Taiyuan Satellite Launch Center

Loading…

Próximos Pases (próximas 24 horas)

TLE

EnvejeciendoSource: Space-Track

Época: Sep 7, 2026, 20:40 UTC

1 38725U 99025ETS 26250.86158867  .00006024  00000-0  16656-2 0  9992
2 38725  98.8859  33.2100 0033403 173.7628 186.3986 14.46750597772397

Sigue FENGYUN 1C DEB en tiempo real con AllMySat

Download on the App Store